Weather reports worldwide

Advertisment
Vinga, Sweden (2516): temperature & dewpoint: 10.10.2019 05:00:00 - 16.10.2019 05:00:00 (CEST)Vinga, Sweden (2516): wind speed & gusts: 10.10.2019 05:00:00 - 16.10.2019 05:00:00 (CEST)Vinga, Sweden (2516): wind direction: 10.10.2019 05:00:00 - 16.10.2019 05:00:00 (CEST)Vinga, Sweden (2516): reduced air pressure: 10.10.2019 05:00:00 - 16.10.2019 05:00:00 (CEST)Vinga, Sweden (2516): visibility: 10.10.2019 05:00:00 - 16.10.2019 05:00:00 (CEST)Vinga, Sweden (2516): precipitation: 10.10.2019 05:00:00 - 16.10.2019 05:00:00 (CEST)
Date & Time tt [°C] td [°C] ff [km/h] ff [kn] fx [km/h] fx [kn] dd ppp [hPa] vv [km] rr [mm]
16.10.2019 05:00:00 11,8 11,5 12 7 23 12 SSE 1005,5 2,2 0,0
16.10.2019 04:00:00 11,8 11,5 19 10 26 14 SSE 1005,7 - 0,0
16.10.2019 03:00:00 11,8 11,5 22 12 27 15 SSE 1005,5 - 0,0
16.10.2019 02:00:00 11,8 11,5 22 12 31 17 SSE 1005,7 - 0,0
16.10.2019 01:00:00 11,8 11,5 26 14 34 19 SSE 1005,9 - 0,0
16.10.2019 00:00:00 11,9 11,4 27 15 36 19 SSE 1006,2 - 0,0
15.10.2019 23:00:00 12,1 11,3 29 16 39 21 SSE 1006,2 - 0,0
15.10.2019 22:00:00 12,8 11,4 31 17 38 20 S 1006,1 - 0,0
15.10.2019 21:00:00 12,7 11,1 20 11 24 13 SSE 1006,4 - 0,0
15.10.2019 20:00:00 12,0 10,6 4 2 10 5 E 1006,6 0,1 0,0
15.10.2019 19:00:00 12,0 10,4 8 5 18 10 E 1006,6 0,1 0,0
15.10.2019 18:00:00 12,0 10,2 10 6 17 9 ENE 1006,4 0,1 0,0
15.10.2019 17:00:00 12,1 10,2 12 6 23 12 NE 1006,1 0,1 0,0
15.10.2019 16:00:00 11,8 9,7 16 9 29 16 ENE 1006,4 - 0,0
15.10.2019 15:00:00 11,5 9,6 18 10 34 19 ENE 1006,9 0,1 0,0
15.10.2019 14:00:00 10,8 8,9 24 13 34 18 ENE 1008,1 0,1 0,0
15.10.2019 13:00:00 10,3 8,9 22 12 30 16 ENE 1009,5 0,1 0,0
15.10.2019 12:00:00 9,7 8,5 16 9 22 12 NE 1010,7 0,1 0,1
15.10.2019 11:00:00 10,0 8,1 10 6 31 17 NE 1011,1 0,1 0,0
15.10.2019 10:00:00 9,9 8,2 23 13 40 21 E 1009,8 0,1 0,5
15.10.2019 09:00:00 9,6 7,9 28 15 41 22 E 1010,1 0,1 0,0
15.10.2019 08:00:00 9,3 7,9 27 14 41 22 E 1011,0 0,1 0,3
15.10.2019 07:00:00 9,0 7,8 29 16 39 21 ESE 1011,5 - 0,4
15.10.2019 06:00:00 8,9 7,3 23 13 34 19 ESE 1013,0 - 0,9
15.10.2019 05:00:00 9,0 7,0 27 15 37 20 E 1013,0 0,1 0,0
15.10.2019 04:00:00 9,0 6,6 19 10 29 16 E 1014,2 0,1 0,0
15.10.2019 03:00:00 9,2 6,5 16 9 27 14 E 1015,6 0,1 0,0
15.10.2019 02:00:00 9,3 6,4 16 9 25 14 E 1016,1 0,1 0,0
15.10.2019 01:00:00 9,4 6,1 19 10 24 13 E 1016,2 0,1 0,0
15.10.2019 00:00:00 9,6 6,1 18 10 26 14 ESE 1016,2 0,1 0,0
14.10.2019 23:00:00 9,7 6,2 16 8 19 10 ESE 1016,1 0,1 0,0
14.10.2019 22:00:00 9,7 5,9 14 8 22 12 E 1016,1 0,1 0,0
14.10.2019 21:00:00 9,8 5,6 16 8 22 12 E 1016,0 0,1 0,0
14.10.2019 20:00:00 9,9 6,4 10 6 17 9 E 1015,8 0,1 0,0
14.10.2019 19:00:00 9,8 5,6 2 1 16 9 ENE 1015,6 0,1 0,0
14.10.2019 18:00:00 10,1 5,9 9 5 19 10 N 1015,1 0,1 0,0
14.10.2019 17:00:00 10,1 5,7 8 5 23 12 NNW 1014,5 0,1 0,0
14.10.2019 16:00:00 10,2 6,2 18 10 29 16 NW 1013,7 0,1 0,0
14.10.2019 15:00:00 10,3 6,3 21 11 35 19 NNW 1013,1 - 0,0
14.10.2019 14:00:00 10,2 6,2 22 12 40 21 N 1012,0 - 0,0
14.10.2019 13:00:00 10,0 6,7 30 16 49 26 NNW 1010,9 - 0,0
14.10.2019 12:00:00 10,0 7,1 36 20 74 40 NNW 1008,6 29 0,0
14.10.2019 11:00:00 9,8 8,1 58 32 75 41 NNW 1005,4 17 0,0
14.10.2019 10:00:00 10,9 9,8 45 25 60 33 NW 1001,8 19 0,0
14.10.2019 09:00:00 12,1 10,8 28 15 48 26 WNW 999,1 16 0,0
14.10.2019 08:00:00 12,0 11,2 41 22 48 26 SW 996,1 3,6 0,4
14.10.2019 07:00:00 11,7 10,3 40 21 59 32 SW 995,6 2,4 0,1
14.10.2019 06:00:00 13,2 10,4 42 23 49 26 SSW 995,6 10 0,0
14.10.2019 05:00:00 13,3 10,8 41 22 54 29 SSW 996,6 8 0,0
14.10.2019 04:00:00 13,6 11,6 43 23 59 32 SSW 996,6 7 0,0
14.10.2019 03:00:00 13,4 12,5 41 22 53 28 SSW 996,5 7 0,0
14.10.2019 02:00:00 13,1 12,3 41 22 51 27 S 996,5 9 0,1
14.10.2019 01:00:00 10,7 9,8 26 14 38 21 ESE 997,9 16 1,7
14.10.2019 00:00:00 10,3 9,2 28 15 41 22 E 999,8 7 2,7
13.10.2019 23:00:00 10,2 9,1 29 16 46 25 E 1001,6 8 2,9
13.10.2019 22:00:00 10,5 9,6 26 14 35 19 E 1003,7 7 3,4
13.10.2019 21:00:00 11,2 10,6 22 12 33 18 ESE 1005,6 7 2,0
13.10.2019 20:00:00 11,5 10,7 28 15 35 19 SE 1006,5 8 0,4
13.10.2019 19:00:00 11,9 11,1 23 12 29 16 SE 1007,4 11 0,0
13.10.2019 18:00:00 11,9 10,6 20 11 24 13 SE 1008,3 17 0,0
13.10.2019 17:00:00 12,1 10,5 17 9 21 11 SSE 1008,9 18 0,0
13.10.2019 16:00:00 12,3 10,4 17 9 24 13 S 1009,7 20 0,0
13.10.2019 15:00:00 12,0 9,9 18 10 22 12 S 1009,8 19 0,0
13.10.2019 14:00:00 12,0 9,9 16 9 26 14 SSW 1009,7 20 0,0
13.10.2019 13:00:00 12,5 9,5 20 11 29 16 SW 1009,7 20 0,0
13.10.2019 12:00:00 12,1 9,8 25 14 31 17 SW 1009,4 17 0,0
13.10.2019 11:00:00 12,2 9,6 24 13 35 19 WSW 1009,0 16 0,0
13.10.2019 10:00:00 11,6 9,5 29 16 38 20 SW 1008,5 16 0,0
13.10.2019 09:00:00 11,3 9,4 32 17 39 21 SW 1007,9 15 0,0
13.10.2019 08:00:00 11,3 9,2 30 16 37 20 SW 1007,3 16 0,0
13.10.2019 07:00:00 11,2 9,1 31 17 39 21 SW 1006,9 15 0,0
13.10.2019 06:00:00 11,0 8,7 35 19 41 22 SW 1006,5 14 0,0
13.10.2019 05:00:00 11,3 8,3 29 16 35 19 SW 1006,4 15 0,0
13.10.2019 04:00:00 11,2 8,4 26 14 36 19 SW 1006,0 14 0,0
13.10.2019 03:00:00 11,5 8,4 27 15 37 20 WSW 1005,7 15 0,0
13.10.2019 02:00:00 11,5 8,5 26 14 40 21 WSW 1005,2 14 0,0
13.10.2019 01:00:00 11,4 8,6 33 18 46 25 WSW 1004,6 13 0,0
13.10.2019 00:00:00 11,7 8,2 32 17 48 26 WSW 1003,9 16 0,0
12.10.2019 23:00:00 11,7 8,2 36 19 49 26 WSW 1003,4 17 0,0
12.10.2019 22:00:00 11,5 8,7 35 19 49 26 WSW 1002,5 14 0,0
12.10.2019 21:00:00 11,8 9,2 38 21 46 25 SW 1001,9 13 0,0
12.10.2019 20:00:00 12,0 8,3 40 21 50 27 WSW 1001,4 16 0,0
12.10.2019 19:00:00 12,1 8,8 33 18 53 29 WSW 1000,9 13 0,0
12.10.2019 18:00:00 12,1 9,1 39 21 51 28 WSW 1000,0 13 0,0
12.10.2019 17:00:00 12,6 9,4 39 21 47 26 WSW 999,5 14 0,0
12.10.2019 16:00:00 12,7 9,2 34 19 53 29 WSW 999,2 20 0,0
12.10.2019 15:00:00 12,7 9,3 35 19 54 29 WSW 998,6 12 0,0
12.10.2019 14:00:00 12,7 9,9 40 22 53 29 SW 998,2 10 1,1
12.10.2019 13:00:00 12,6 10,0 45 24 52 28 SSW 997,8 8 0,0
12.10.2019 12:00:00 12,4 9,6 37 20 45 25 SSW 997,8 10 0,0
12.10.2019 11:00:00 12,5 9,5 36 19 47 25 SW 997,6 11 0,0
12.10.2019 10:00:00 12,1 9,8 34 18 41 22 SW 997,3 10 0,0
12.10.2019 09:00:00 11,6 9,3 35 19 45 24 SW 996,7 11 0,2
12.10.2019 08:00:00 11,7 9,4 37 20 46 25 SW 996,1 11 0,0
12.10.2019 07:00:00 11,6 9,3 39 21 46 25 SW 995,5 12 0,0
12.10.2019 06:00:00 11,5 9,4 35 19 42 23 SW 995,4 12 0,0
12.10.2019 05:00:00 11,4 9,7 36 19 42 23 SW 995,1 11 0,0
12.10.2019 04:00:00 11,5 9,9 32 17 43 23 SW 995,1 11 0,0
12.10.2019 03:00:00 11,5 10,1 35 19 41 22 SW 994,6 12 0,0
12.10.2019 02:00:00 11,6 9,8 32 17 44 24 WSW 994,4 13 0,0
12.10.2019 01:00:00 11,5 10,1 34 19 47 26 WSW 994,3 12 0,0
12.10.2019 00:00:00 11,7 10,3 39 21 46 25 SW 994,0 13 0,0
11.10.2019 23:00:00 11,9 10,5 36 19 44 24 SW 993,7 12 0,0
11.10.2019 22:00:00 12,0 10,6 34 18 42 23 SW 993,8 12 0,0
11.10.2019 21:00:00 12,0 10,6 31 17 43 23 SW 993,8 10 0,0
11.10.2019 20:00:00 12,2 10,4 34 18 47 25 SW 994,3 11 0,0
11.10.2019 19:00:00 12,4 10,5 40 21 53 28 SW 994,7 12 0,0
11.10.2019 18:00:00 12,5 10,9 37 20 45 24 SW 994,7 11 0,0
11.10.2019 17:00:00 12,5 10,9 35 19 42 23 SSW 995,0 10 0,0
11.10.2019 16:00:00 12,6 11,3 35 19 46 25 SSW 995,7 10 0,0
11.10.2019 15:00:00 12,5 11,2 37 20 45 24 SSW 995,9 7 0,0
11.10.2019 14:00:00 12,4 11,3 29 16 53 29 SSW 996,7 9 0,0
11.10.2019 13:00:00 12,3 11,4 40 22 49 26 SSW 997,1 7 0,2
11.10.2019 12:00:00 - - - - - - - - - -
11.10.2019 11:00:00 12,7 11,4 40 21 47 25 SW 997,3 7 0,0
11.10.2019 10:00:00 11,9 11,0 29 16 40 22 SW 997,3 10 0,0
11.10.2019 09:00:00 11,6 10,7 29 16 36 20 SSW 997,2 11 0,0
11.10.2019 08:00:00 10,6 9,7 26 14 35 19 S 997,8 7 0,0
11.10.2019 07:00:00 11,0 8,7 22 12 32 18 SSW 998,8 12 0,0
11.10.2019 06:00:00 10,6 9,0 28 15 44 24 SW 999,6 9 0,4
11.10.2019 05:00:00 11,0 9,8 29 16 36 19 SW 1000,3 7 0,4
11.10.2019 04:00:00 11,3 10,0 25 13 36 20 SW 1000,7 9 0,0
11.10.2019 03:00:00 11,2 9,8 30 16 39 21 SW 1001,3 12 0,0
11.10.2019 02:00:00 11,1 9,7 29 16 42 23 SW 1001,7 12 0,0
11.10.2019 01:00:00 11,2 9,6 35 19 44 24 WSW 1001,3 13 0,0
11.10.2019 00:00:00 11,3 10,0 35 19 44 24 WSW 1001,2 11 0,0
10.10.2019 23:00:00 11,2 9,8 35 19 44 24 WSW 1000,8 12 0,0
10.10.2019 22:00:00 11,2 9,6 32 18 42 23 WSW 1000,5 14 0,0
10.10.2019 21:00:00 11,4 9,0 36 20 44 24 SW 1000,5 20 0,0
10.10.2019 20:00:00 11,6 8,8 31 17 37 20 SW 1000,6 19 0,0
10.10.2019 19:00:00 11,8 9,2 30 16 39 21 SSW 1000,3 17 0,0
10.10.2019 18:00:00 11,9 9,3 29 15 34 18 SSW 1000,1 18 0,0
10.10.2019 17:00:00 12,0 9,0 26 14 30 16 SSW 1000,3 19 0,0
10.10.2019 16:00:00 12,1 7,6 23 13 31 17 SW 1000,4 28 0,0
10.10.2019 15:00:00 12,1 8,6 22 12 27 15 SW 1000,4 23 0,0
10.10.2019 14:00:00 12,0 8,5 20 11 27 15 SW 1000,3 24 0,0
10.10.2019 13:00:00 11,8 8,8 21 11 25 13 SW 999,8 18 0,0
10.10.2019 12:00:00 11,1 8,5 21 11 29 16 SW 999,6 26 0,0
10.10.2019 11:00:00 10,9 8,8 24 13 29 16 SW 999,3 19 0,0
10.10.2019 10:00:00 11,3 8,9 12 7 21 11 SW 998,7 23 0,0
10.10.2019 09:00:00 10,7 8,8 16 9 20 11 SW 998,3 18 0,0
10.10.2019 08:00:00 10,3 8,6 16 9 23 13 WSW 997,9 19 0,0
10.10.2019 07:00:00 10,5 8,8 20 11 23 12 SW 997,6 25 0,0
10.10.2019 06:00:00 10,4 8,5 16 8 21 11 SW 997,4 21 0,0
10.10.2019 05:00:00 10,6 8,7 16 9 20 11 SW 997,2 22 0,0

tt = temperature
td = dewpoint
ff = wind speed
fx = gusts
dd = wind direction
ppp = reduced air pressure
vv = visibility
rr = precipitation

Next stations